Melbourne Airport, Australia

10:06 PM AEST on August 17, 2017 (GMT +1000)
Melbourne International

Weather History for YMML - September, 2013

Change the Weather History Date:

Friday, September 27, 2013

  Actual Average Record
Temperature  
Mean Temperature 54 °F -  
Max Temperature 66 °F 64 °F 82 °F (2008)
Min Temperature 41 °F 45 °F 37 °F (1996)
Degree Days  
Heating Degree Days 12    
Growing Degree Days 4 (Base 50)    
Moisture  
Dew Point 40 °F    
Average Humidity 57    
Maximum Humidity 94    
Minimum Humidity 26    
Precipitation  
Precipitation 0.04 in 0.08 in - ()
Sea Level Pressure  
Sea Level Pressure 29.94 in    
Wind  
Wind Speed 16 mph ()    
Max Wind Speed 26 mph    
Max Gust Speed 39 mph    
Visibility 11.2 miles    
Events Rain    
Averages and records for this station are not official NWS values.
T = Trace of Precipitation, MM = Missing Value Source: Averaged Metar Reports

Daily Weather History Graph

Daily Weather History Graph

Search for Another Location

Airport or City:

Trip Planner

Search our weather history database for the weather conditions in past years. The results will help you decide how hot, cold, wet, or windy it might be!

Date:

Astronomy

Sep. 27, 2013 Rise Set
Actual Time 6:02 AM AEST 6:21 PM AEST
Civil Twilight 5:36 AM AEST 6:47 PM AEST
Nautical Twilight 5:06 AM AEST 7:18 PM AEST
Astronomical Twilight 4:34 AM AEST 7:49 PM AEST
Moon 12:52 AM AEST (9/27) 11:06 AM AEST (9/27)
Length of Visible Light 13h 10m
Length of Day
12h 18m
Waning Gibbous, 51% of the Moon is Illuminated
Sep 27
Waning Gibbous
Sep 27
Last Quarter
Oct 5
New
Oct 12
First Quarter
Oct 19
Full

Hourly Weather History & Observations

Time (AEST) Temp. Windchill Dew Point Humidity Pressure Visibility Wind Dir Wind Speed Gust Speed Precip Events Conditions
12:00 AM 45 °F - 36 °F 62% 30.07 in 16 mi North 12.7 mph - -   Haze
12:00 AM 44.6 °F 38.4 °F 35.6 °F 71% 30.06 in - North 12.7 mph - N/A   Clear
12:30 AM 44.6 °F 38.4 °F 35.6 °F 71% 30.06 in - North 12.7 mph - N/A   Clear
1:00 AM 44 °F - 36 °F 65% 30.06 in - North 12.7 mph - -  
1:00 AM 44.6 °F 38.4 °F 35.6 °F 71% 30.04 in - North 12.7 mph - N/A   Clear
1:30 AM 42.8 °F 36.6 °F 37.4 °F 81% 30.04 in - North 11.5 mph - N/A   Clear
2:00 AM 44 °F - 36 °F 65% 30.06 in - North 13.8 mph - -  
2:00 AM 42.8 °F 35.8 °F 35.6 °F 76% 30.04 in 6.2 mi North 13.8 mph - N/A   Partly Cloudy
2:30 AM 42.8 °F 35.8 °F 37.4 °F 81% 30.04 in 6.2 mi North 13.8 mph - N/A   Partly Cloudy
3:00 AM 42 °F - 37 °F 75% 30.05 in 16 mi North 12.7 mph - -   Haze
3:00 AM 42.8 °F 36.2 °F 37.4 °F 81% 30.04 in 6.2 mi North 12.7 mph - N/A   Partly Cloudy
3:30 AM 46.4 °F 41.1 °F 35.6 °F 66% 30.04 in - North 11.5 mph - N/A   Clear
4:00 AM 44 °F - 36 °F 64% 30.05 in - North 12.7 mph - -  
4:00 AM 44.6 °F 38.4 °F 35.6 °F 71% 30.04 in - North 12.7 mph - N/A   Clear
4:30 AM 44.6 °F 37.8 °F 35.6 °F 71% 30.04 in - North 15.0 mph - N/A   Clear
5:00 AM 44 °F - 36 °F 65% 30.04 in - North 15.0 mph - -  
5:00 AM 42.8 °F 35.4 °F 35.6 °F 76% 30.04 in - North 15.0 mph - N/A   Clear
5:30 AM 42.8 °F 36.6 °F 37.4 °F 81% 30.04 in - North 11.5 mph - N/A   Clear
6:00 AM 42 °F - 36 °F 73% 30.04 in 16 mi North 15.0 mph - -   Haze
6:00 AM 42.8 °F 35.4 °F 35.6 °F 76% 30.04 in - North 15.0 mph - N/A   Clear
6:30 AM 44.6 °F 37.4 °F 37.4 °F 76% 30.04 in - North 16.1 mph - N/A   Clear
7:00 AM 46 °F - 38 °F 63% 30.05 in - North 20.7 mph - -  
7:00 AM 46.4 °F 38.7 °F 37.4 °F 71% 30.04 in - North 20.7 mph - N/A   Clear
7:30 AM 48.2 °F - 37.4 °F 66% 30.04 in - North 18.4 mph - N/A   Clear
8:00 AM 50 °F - 39 °F 56% 30.05 in - North 17.3 mph - -  
8:00 AM 50.0 °F - 39.2 °F 66% 30.04 in - North 17.3 mph - N/A   Clear
8:30 AM 51.8 °F - 39.2 °F 62% 30.04 in - North 18.4 mph - N/A   Clear
9:00 AM 53 °F - 40 °F 49% 30.05 in 16 mi North 20.7 mph - -   Haze
9:00 AM 53.6 °F - 39.2 °F 58% 30.04 in - North 20.7 mph - N/A   Clear
9:30 AM 55.4 °F - 39.2 °F 54% 30.04 in - North 21.9 mph - N/A   Clear
10:00 AM 56 °F - 41 °F 46% 30.03 in - North 21.9 mph - -  
10:00 AM 55.4 °F - 41.0 °F 58% 30.01 in - North 21.9 mph - N/A   Clear
10:30 AM 59.0 °F - 42.8 °F 55% 30.01 in - North 20.7 mph - N/A   Clear
11:00 AM 60 °F - 42 °F 39% 30.00 in - North 21.9 mph - -  
11:00 AM 60.8 °F - 41.0 °F 48% 29.98 in - North 21.9 mph - N/A   Clear
11:30 AM 60.8 °F - 41.0 °F 48% 29.98 in - North 19.6 mph - N/A   Clear
12:00 PM 63 °F - 41 °F 32% 29.96 in 19 mi North 20.7 mph - -   Partly Cloudy
12:00 PM 62.6 °F - 41.0 °F 45% 29.95 in - North 20.7 mph - N/A   Clear
12:30 PM 64.4 °F - 41.0 °F 42% 29.95 in - North 19.6 mph - N/A   Clear
1:00 PM 65 °F - 43 °F 33% 29.94 in - North 20.7 mph - -  
1:00 PM 64.4 °F - 42.8 °F 45% 29.92 in - North 20.7 mph - N/A   Clear
1:30 PM 66.2 °F - 42.8 °F 43% 29.89 in - North 21.9 mph - N/A   Clear
1:45 PM 66.2 °F - 41.0 °F 40% 29.89 in - North 23.0 mph 34.5 mph N/A   Clear
2:00 PM 65 °F - 40 °F 29% 29.89 in - North 25.3 mph - -  
2:00 PM 64.4 °F - 41.0 °F 42% 29.89 in - North 25.3 mph - N/A   Clear
2:30 PM 66.2 °F - 39.2 °F 37% 29.86 in - North 25.3 mph - N/A   Clear
3:00 PM 65 °F - 38 °F 26% 29.86 in 19 mi North 23.0 mph - -   Partly Cloudy
3:00 PM 66.2 °F - 39.2 °F 37% 29.86 in - North 23.0 mph - N/A   Clear
3:30 PM 66.2 °F - 39.2 °F 37% 29.83 in - North 26.5 mph - N/A   Clear
3:43 PM 66.2 °F - 39.2 °F 37% 29.83 in - North 24.2 mph 35.7 mph N/A   Clear
4:00 PM 65 °F - 39 °F 26% 29.84 in - North 24.2 mph - -  
4:00 PM 66.2 °F - 39.2 °F 37% 29.83 in - North 24.2 mph - N/A   Clear
4:30 PM 64.4 °F - 39.2 °F 40% 29.83 in - North 21.9 mph - N/A   Clear
5:00 PM 65 °F - 40 °F 28% 29.83 in - North 23.0 mph - -  
5:00 PM 64.4 °F - 39.2 °F 40% 29.83 in - North 23.0 mph - N/A   Clear
5:30 PM 64.4 °F - 41.0 °F 42% 29.80 in - North 24.2 mph - N/A   Clear
6:00 PM 62 °F - 42 °F 35% 29.82 in 16 mi North 21.9 mph - -   Haze
6:00 PM 62.6 °F - 41.0 °F 45% 29.80 in - North 21.9 mph - N/A   Clear
6:30 PM 60.8 °F - 41.0 °F 48% 29.80 in - North 20.7 mph - N/A   Clear
7:00 PM 60 °F - 41 °F 37% 29.81 in - North 19.6 mph - -  
7:00 PM 60.8 °F - 41.0 °F 48% 29.80 in - North 19.6 mph - N/A   Clear
7:30 PM 59.0 °F - 41.0 °F 51% 29.80 in - North 17.3 mph - N/A   Clear
8:00 PM 58 °F - 41 °F 42% 29.81 in - North 15.0 mph - -  
8:00 PM 59.0 °F - 41.0 °F 51% 29.80 in - North 15.0 mph - N/A   Clear
8:30 PM 59.0 °F - 41.0 °F 51% 29.80 in - North 11.5 mph - N/A   Clear
9:00 PM 58 °F - 42 °F 44% 29.88 in 12 mi West 20.7 mph - -   Partly Cloudy
9:00 PM 59.0 °F - 42.8 °F 55% 29.86 in 6.2 mi West 20.7 mph - N/A   Mostly Cloudy
9:07 PM 53.6 °F - 46.4 °F 77% 29.89 in 6.2 mi WSW 26.5 mph 39.1 mph N/A Rain Light Rain Showers
9:30 PM 50.0 °F - 48.2 °F 94% 29.89 in 6.2 mi SW 15.0 mph - N/A Rain Light Rain Showers
10:00 PM 49 °F - 47 °F 88% 29.92 in - WSW 13.8 mph - -  
10:00 PM 50.0 °F - 46.4 °F 87% 29.92 in 6.2 mi WSW 13.8 mph - N/A Rain Light Rain
10:30 PM 51.8 °F - 46.4 °F 82% 29.83 in 6.2 mi ENE 16.1 mph - N/A   Mostly Cloudy
11:00 PM 51 °F - 45 °F 74% 29.84 in - North 11.5 mph - -  
11:00 PM 51.8 °F - 44.6 °F 76% 29.83 in - North 11.5 mph - N/A   Clear
11:30 PM 50.0 °F - 46.4 °F 87% 29.83 in - North 12.7 mph - N/A   Clear